Location: Newark
(52.0178°N, 4.7453°W)
Time: 16:47:07
(UTC+00:00)

Envisat - Pass Details

Date: 23 March 2019
Orbit: 764 x 766 km, 98.2° (Epoch: 25 April)

Event Time Altitude Azimuth Distance (km) Brightness Sun altitude
Rises 19:42:17 0° 195° (SSW) 3,223 6.2 -10.7°
Reaches altitude 10° 19:44:52 10° 206° (SSW) 2,302 5.6 -11.1°
Maximum altitude 19:49:16 29° 267° (W) 1,377 5.1 -11.8°
Drops below altitude 10° 19:53:42 10° 327° (NNW) 2,316 6.3 -12.4°
Sets 19:56:18 0° 339° (NNW) 3,247 6.9 -12.8°
